{"data":{"norad_id":65873,"epoch":"2026-05-25T04:00:03.998880Z","epoch_age_seconds":57049,"freshness":"FRESH","line1":"1 65873U 25223V   26145.16671295  .00005044  00000+0  16020-3 0  9992","line2":"2 65873  53.1584 298.5348 0001155  73.6397 169.9029 15.34419993  5709","mean_motion":15.34419993,"eccentricity":0.0001155,"inclination_deg":53.1584,"raan_deg":298.5348,"arg_perigee_deg":73.6397,"mean_anomaly_deg":169.9029,"bstar":0.0001602,"rev_number":570,"period_min":93.84653527517,"perigee_km":461.85370725858,"apogee_km":463.43392762741,"semimajor_km":6840.780817443,"source":"CELESTRAK","updated_at":"2026-05-25T13:38:20.976361Z"}}